When you browse on this site, cookies collect data to enhance your experience and personalize the content and advertising you see.
Visit our Privacy Policy to learn more. By continuing to use the site, you agree to this use of cookies and data.
  • In Hungary
  • List of Countries
  • For 7 days
  • Water Temperature
  • Satellite Maps
  • Weather Map
  • News
  • Weather Widgets
  • user-avatar
    Login

    Hourly Weather Utrecht

    Today, 22 January, Tuesday

    Time Temperature Precipitation Wind Pressure Humidity
    00:00 -4°C° 0 mm 3 mps 761 mmHg 67%
    01:00 -4°C° 0 mm 3 mps 760 mmHg 64%
    02:00 -4°C° 0 mm 3 mps 759 mmHg 61%
    03:00 -4°C° 0 mm 4 mps 758 mmHg 58%
    04:00 -4°C° 0 mm 4 mps 757 mmHg 55%
    05:00 -5°C° 0 mm 5 mps 756 mmHg 52%
    06:00 -4°C° 0 mm 4 mps 755 mmHg 49%
    07:00 -5°C° 0 mm 5 mps 755 mmHg 48%
    08:00 -4°C° 0 mm 5 mps 754 mmHg 46%
    09:00 -4°C° 0 mm 6 mps 753 mmHg 44%
    10:00 -4°C° 0.3 mm 6 mps 753 mmHg 56%
    11:00 -4°C° 0.3 mm 6 mps 753 mmHg 68%
    12:00 -5°C° 0 mm 6 mps 752 mmHg 87%
    13:00 -5°C° 0.6 mm 5 mps 752 mmHg 88%
    14:00 -4°C° 0.6 mm 5 mps 751 mmHg 90%
    15:00 -3°C° 0.6 mm 4 mps 751 mmHg 91%
    16:00 -3°C° 0.1 mm 4 mps 751 mmHg 91%
    17:00 -3°C° 0.1 mm 4 mps 751 mmHg 92%
    18:00 -3°C° 0.1 mm 4 mps 750 mmHg 92%
    19:00 -3°C° 0 mm 4 mps 750 mmHg 92%
    20:00 -2°C° 0 mm 3 mps 750 mmHg 92%
    21:00 -2°C° 0 mm 3 mps 750 mmHg 92%
    22:00 -2°C° 0 mm 3 mps 749 mmHg 93%
    23:00 -3°C° 0 mm 2 mps 749 mmHg 94%

    Tomorrow, 23 January, Wednesday

    Time Temperature Precipitation Wind Pressure Humidity
    00:00 -3°C° 0 mm 2 mps 749 mmHg 95%
    01:00 -3°C° 0 mm 2 mps 748 mmHg 95%
    02:00 -3°C° 0 mm 2 mps 748 mmHg 95%
    03:00 -3°C° 0 mm 2 mps 748 mmHg 95%
    04:00 -3°C° 0 mm 2 mps 748 mmHg 94%
    05:00 -3°C° 0 mm 2 mps 748 mmHg 93%
    06:00 -3°C° 0 mm 2 mps 748 mmHg 92%
    07:00 -3°C° 0 mm 2 mps 748 mmHg 91%
    08:00 -3°C° 0 mm 2 mps 749 mmHg 90%
    09:00 -3°C° 0 mm 2 mps 749 mmHg 89%
    10:00 -2°C° 0 mm 2 mps 749 mmHg 86%
    11:00 -1°C° 0 mm 3 mps 750 mmHg 83%
    12:00 0°C° 0 mm 3 mps 750 mmHg 80%
    13:00 0°C° 0 mm 3 mps 750 mmHg 81%
    14:00 -1°C° 0 mm 2 mps 751 mmHg 81%
    15:00 -1°C° 0 mm 2 mps 751 mmHg 82%
    16:00 -1°C° 0 mm 2 mps 751 mmHg 85%
    17:00 -2°C° 0 mm 2 mps 752 mmHg 88%
    18:00 -3°C° 0 mm 2 mps 752 mmHg 91%
    19:00 -3°C° 0 mm 2 mps 752 mmHg 91%
    20:00 -4°C° 0 mm 2 mps 753 mmHg 91%
    21:00 -2°C° 0 mm 1 mps 753 mmHg 91%
    22:00 -2°C° 0 mm 1 mps 754 mmHg 91%
    23:00 -2°C° 0 mm 1 mps 754 mmHg 90%

    Day after tomorrow, 24 January, Thursday

    Time Temperature Precipitation Wind Pressure Humidity
    00:00 -2°C° 0 mm 1 mps 754 mmHg 90%
    01:00 -2°C° 0 mm 1 mps 755 mmHg 90%
    02:00 -2°C° 0 mm 1 mps 755 mmHg 90%
    03:00 -2°C° 0 mm 1 mps 755 mmHg 89%
    04:00 -2°C° 0 mm 1 mps 755 mmHg 89%
    05:00 -2°C° 0 mm 1 mps 755 mmHg 89%
    06:00 -3°C° 0 mm 0 mps 755 mmHg 89%
    07:00 -3°C° 0 mm 0 mps 756 mmHg 87%
    08:00 -2°C° 0 mm 0 mps 756 mmHg 85%
    09:00 -2°C° 0 mm 0 mps 756 mmHg 84%
    10:00 -1°C° 0 mm 0 mps 756 mmHg 80%
    11:00 0°C° 0 mm 0 mps 756 mmHg 77%
    12:00 +1°C° 0 mm 0 mps 756 mmHg 73%
    13:00 +1°C° 0 mm 0 mps 757 mmHg 76%
    14:00 +1°C° 0 mm 0 mps 757 mmHg 78%
    15:00 0°C° 0 mm 0 mps 757 mmHg 81%
    16:00 -1°C° 0 mm 0 mps 757 mmHg 82%
    17:00 0°C° 0 mm 1 mps 758 mmHg 83%
    18:00 -1°C° 0 mm 1 mps 758 mmHg 84%
    19:00 -1°C° 0 mm 1 mps 759 mmHg 83%
    20:00 -1°C° 0 mm 1 mps 759 mmHg 81%
    21:00 -2°C° 0 mm 1 mps 760 mmHg 80%
    22:00 -2°C° 0 mm 1 mps 760 mmHg 79%
    23:00 -2°C° 0 mm 1 mps 760 mmHg 78%

    25 January, Friday

    Time Temperature Precipitation Wind Pressure Humidity
    00:00 -2°C° 0 mm 1 mps 760 mmHg 78%
    01:00 -2°C° 0 mm 1 mps 761 mmHg 79%
    02:00 -5°C° 0 mm 2 mps 761 mmHg 80%
    03:00 -5°C° 0 mm 2 mps 761 mmHg 80%
    04:00 -5°C° 0 mm 2 mps 762 mmHg 81%
    05:00 -5°C° 0 mm 2 mps 762 mmHg 82%
    06:00 -6°C° 0 mm 2 mps 763 mmHg 82%
    07:00 -5°C° 0 mm 2 mps 763 mmHg 81%
    08:00 -5°C° 0 mm 2 mps 764 mmHg 79%
    09:00 -5°C° 0 mm 2 mps 764 mmHg 78%
    10:00 -4°C° 0 mm 2 mps 765 mmHg 74%
    11:00 -3°C° 0 mm 2 mps 765 mmHg 70%
    12:00 -2°C° 0 mm 2 mps 766 mmHg 66%
    13:00 -2°C° 0 mm 2 mps 766 mmHg 67%
    14:00 -3°C° 0 mm 2 mps 766 mmHg 68%
    15:00 -1°C° 0 mm 1 mps 766 mmHg 70%
    16:00 -1°C° 0 mm 1 mps 767 mmHg 73%
    17:00 -2°C° 0 mm 1 mps 767 mmHg 76%
    18:00 -3°C° 0 mm 1 mps 768 mmHg 80%
    19:00 -3°C° 0 mm 1 mps 768 mmHg 81%
    20:00 -3°C° 0 mm 1 mps 768 mmHg 81%
    21:00 -4°C° 0 mm 1 mps 768 mmHg 82%
    22:00 -4°C° 0 mm 1 mps 768 mmHg 82%
    23:00 -4°C° 0 mm 1 mps 768 mmHg 82%

    26 January, Saturday

    Time Temperature Precipitation Wind Pressure Humidity
    00:00 -4°C° 0 mm 1 mps 768 mmHg 82%
    01:00 -4°C° 0 mm 1 mps 768 mmHg 82%
    02:00 -4°C° 0 mm 1 mps 767 mmHg 82%
    03:00 -6°C° 0 mm 2 mps 767 mmHg 81%
    04:00 -6°C° 0 mm 2 mps 767 mmHg 81%
    05:00 -6°C° 0 mm 2 mps 766 mmHg 81%
    06:00 -6°C° 0 mm 2 mps 766 mmHg 82%
    07:00 -7°C° 0 mm 3 mps 766 mmHg 80%
    08:00 -7°C° 0 mm 3 mps 765 mmHg 79%
    09:00 -6°C° 0 mm 3 mps 765 mmHg 78%
    10:00 -5°C° 0 mm 4 mps 764 mmHg 74%
    11:00 -4°C° 0 mm 4 mps 763 mmHg 70%
    12:00 -4°C° 0 mm 5 mps 763 mmHg 66%
    13:00 -4°C° 0 mm 5 mps 762 mmHg 65%
    14:00 -4°C° 0 mm 5 mps 761 mmHg 64%
    15:00 -4°C° 0 mm 5 mps 760 mmHg 63%
    16:00 -4°C° 0 mm 5 mps 759 mmHg 64%
    17:00 -4°C° 0 mm 5 mps 758 mmHg 65%
    18:00 -4°C° 0 mm 6 mps 757 mmHg 65%
    19:00 -4°C° 0.1 mm 6 mps 756 mmHg 70%
    20:00 -4°C° 0.1 mm 6 mps 755 mmHg 74%
    21:00 -3°C° 0.1 mm 7 mps 754 mmHg 78%
    22:00 -3°C° 0.1 mm 7 mps 753 mmHg 82%
    23:00 -2°C° 0.1 mm 7 mps 753 mmHg 86%

    27 January, Sunday

    Time Temperature Precipitation Wind Pressure Humidity
    00:00 -2°C° 0.1 mm 7 mps 752 mmHg 89%
    01:00 -1°C° 0.1 mm 7 mps 751 mmHg 90%
    02:00 -1°C° 0.1 mm 6 mps 750 mmHg 91%
    03:00 +1°C° 0.1 mm 6 mps 750 mmHg 93%
    04:00 +1°C° 0.2 mm 6 mps 750 mmHg 92%
    05:00 +1°C° 0.2 mm 6 mps 749 mmHg 92%
    06:00 +1°C° 0.2 mm 6 mps 749 mmHg 91%
    07:00 +1°C° 0.5 mm 6 mps 749 mmHg 88%
    08:00 +1°C° 0.5 mm 5 mps 750 mmHg 86%
    09:00 +2°C° 0.5 mm 5 mps 750 mmHg 83%
    10:00 +2°C° 0.1 mm 5 mps 750 mmHg 79%
    11:00 +2°C° 0.1 mm 5 mps 751 mmHg 76%
    12:00 +3°C° 0.1 mm 5 mps 751 mmHg 72%
    13:00 +3°C° 0.1 mm 5 mps 751 mmHg 75%
    14:00 +3°C° 0.1 mm 4 mps 751 mmHg 78%
    15:00 +3°C° 0.1 mm 4 mps 751 mmHg 80%
    16:00 +3°C° 0.6 mm 4 mps 751 mmHg 81%
    17:00 +1°C° 0.6 mm 4 mps 751 mmHg 82%
    18:00 +1°C° 0.6 mm 4 mps 751 mmHg 83%
    19:00 +1°C° 0.7 mm 5 mps 752 mmHg 82%
    20:00 +2°C° 0.7 mm 6 mps 752 mmHg 82%
    21:00 +2°C° 0.7 mm 7 mps 752 mmHg 82%
    22:00 +2°C° 0.4 mm 6 mps 752 mmHg 81%
    23:00 +2°C° 0.4 mm 6 mps 753 mmHg 81%
    Show more